Weather Roundup
Issued by NWS

Home | Current Version | Previous Version | Graphics & Text | Print | Product List | Glossary Off
Versions: 1 2 3 4 5 6 7 8 9 10 11 12 13 14 15 16 17 18 19 20 21 22 23 24 25 26 27 28 29 30 31 32 33 34 35 36 37 38 39 40 41 42 43 44 45 46 47 48 49 50

000
NZUS93 KARX 260059
HRRWXR

CURRENT HOURLY OBSERVATIONS ACROSS
MUCH OF THE UPPER MISSISSIPPI VALLEY
NATIONAL WEATHER SERVICE LA CROSSE WI
800 PM CDT SAT APR 25 2015


...SOUTHEAST MINNESOTA...


CITY           SKY/WX    TMP DP  RH WIND       PRES   REMARKS
ROCHESTER      PTCLDY    50  31  48 NE6       29.88R
ROCHESTER/MAYO FAIR      55  28  35 NE5       29.87S
WINONA         PTCLDY    52  25  35 SE5       29.88R
AUSTIN         PTCLDY    48  37  66 CALM      29.87R
ALBERT LEA     MOCLDY    48  39  71 NE3       29.88R
DODGE CENTER   PTCLDY    50  39  66 E5        29.88R
PRESTON        PTCLDY    50  32  50 CALM      29.87R
OWATONNA       PTCLDY    52  36  54 CALM      29.88R
FARIBAULT      CLEAR     55  27  33 E5        29.89R
$$

...ELSEWHERE IN MINNESOTA...


CITY           SKY/WX    TMP DP  RH WIND       PRES   REMARKS
MINNEAPOLIS    CLEAR     59  20  22 NE9       29.88R
INTNL FALLS    CLEAR     52  23  32 E5        29.99R
DULUTH         CLEAR     38  17  42 E10       30.01R WCI  31
RED WING       CLEAR     55  19  24 E3        29.87R
REDWOOD FALLS  CLOUDY    57  37  47 SE6       29.88R
MANKATO        CLEAR     52  37  58 SE6       29.89R
WORTHINGTON    CLOUDY    52  37  58 E14G20    29.90R
FAIRMONT       MOCLDY    52  36  54 E8        29.89R
$$

...SOUTHWEST WISCONSIN...


CITY           SKY/WX    TMP DP  RH WIND       PRES   REMARKS
LA CROSSE      PTCLDY    55  18  23 E7        29.87R
PRAIRIE DU CHI CLOUDY    51  28  41 E7        29.86R
BOSCOBEL       CLOUDY    51  28  41 CALM      29.87R
LONE ROCK      NOT AVBL
PLATTEVILLE    CLOUDY    47  35  61 NE8       29.85R
FORT MC COY    PTCLDY    52  11  19 E7        29.88R
VIROQUA        FAIR      49  23  36 NE8       29.86R
WIS DELLS      MOCLDY    48  19  31 NE10      29.87R
$$

...ELSEWHERE IN WISCONSIN...


CITY           SKY/WX    TMP DP  RH WIND       PRES   REMARKS
MILWAUKEE      MOCLDY    40  24  53 NE14G23   29.87R WCI  32
MADISON        MOCLDY    47  28  47 E6        29.86R
GREEN BAY      PTCLDY    44  18  35 NE10      29.91R
EAU CLAIRE     NOT AVBL
BLACK RVR FLS  FAIR      55  14  20 SE3       29.86R
MEDFORD        CLEAR     52  21  29 NE6       29.87R
WAUSAU         CLEAR     49  17  28 SE10      29.88R
WIS RAPIDS     PTCLDY    48  14  25 E8        29.91R
MARSHFIELD     CLEAR     52  21  29 E3        29.88R
RICE LAKE      CLEAR     52  27  37 N14G22    29.91R
$$

...NORTHEAST IOWA...


CITY           SKY/WX    TMP DP  RH WIND       PRES   REMARKS
DECORAH        CLOUDY    50  32  50 CALM      29.85R
MASON CITY     MOCLDY    49  38  65 E9        29.88R
CHARLES CITY   CLOUDY    50  39  66 NE7       29.86S
OELWEIN        CLOUDY    48  39  71 E7        29.85S
$$

...ELSEWHERE IN IOWA...


CITY           SKY/WX    TMP DP  RH WIND       PRES   REMARKS
DES MOINES     CLOUDY    51  41  68 E14G20    29.81R
IOWA CITY      CLOUDY    49  41  74 NE12      29.83R
FORT DODGE     CLOUDY    50  39  66 E10       29.86R
$$

...NORTHERN ILLINOIS...


CITY           SKY/WX    TMP DP  RH WIND       PRES   REMARKS
CHICAGO-OHARE  CLOUDY    42  32  67 N14       29.82R
CHICAGO-MIDWAY CLOUDY    44  35  70 NE14      29.82R
MOLINE         CLOUDY    48  39  71 NE16      29.80R
ROCKFORD       CLOUDY    45  32  60 NE13      29.87R
PEORIA         CLOUDY    49  42  77 NE16G24   29.75R
$$

NOTE: "FAIR" INDICATES FEW OR NO CLOUDS BELOW 12,000 FEET WITH NO
SIGNIFICANT WEATHER AND/OR OBSTRUCTIONS TO VISIBILITY. WIND
SPEEDS ARE IN MILES-PER-HOUR.



USA.gov is the U.S. government's official web portal to all federal, state and local government web resources and services.